W7KKE-3 Weather Reports


Display with metric or nautical units.
time (UTC)temp
F
wind
direction
speed
MPH
gust
MPH
rain 1hr
in
rain 24hr
in
rain mn
in
humidity
%
barometer
mb
20160824044039 58 0 0.0 0.0 0.00 0.00 0.00 81 1020.9
20160824043539 58 0 0.0 0.0 0.00 0.00 0.00 80 1020.9
20160824043040 58 0 0.0 0.0 0.00 0.00 0.00 80 1020.9
20160824042540 58 0 0.0 0.0 0.00 0.00 0.00 79 1020.9
20160824042039 58 0 0.0 0.0 0.00 0.00 0.00 79 1021.0
20160824041539 59 0 0.0 0.0 0.00 0.00 0.00 79 1021.0
20160824041039 59 0 0.0 0.0 0.00 0.00 0.00 78 1020.9
20160824040539 59 0 0.0 0.0 0.00 0.00 0.00 78 1020.9
20160824040039 59 0 0.0 0.0 0.00 0.00 0.00 77 1020.9
20160824035540 59 0 0.0 0.0 0.00 0.00 0.00 77 1020.7
20160824035039 59 0 0.0 0.0 0.00 0.00 0.00 76 1020.7
20160824034539 59 0 0.0 0.0 0.00 0.00 0.00 76 1020.6
20160824034039 59 78 0.0 6.0 0.00 0.00 0.00 76 1020.5
20160824033540 60 288 0.0 6.0 0.00 0.00 0.00 76 1020.5
20160824033039 60 317 0.0 6.0 0.00 0.00 0.00 76 1020.5
20160824032540 60 320 4.0 9.0 0.00 0.00 0.00 75 1020.4
20160824032039 60 0 0.0 9.0 0.00 0.00 0.00 75 1020.4
20160824031539 60 317 0.0 9.0 0.00 0.00 0.00 75 1020.3
20160824031039 60 327 7.0 8.0 0.00 0.00 0.00 75 1020.3
20160824030539 60 327 5.0 13.0 0.00 0.00 0.00 75 1020.3
20160824030039 60 316 6.0 13.0 0.00 0.00 0.00 74 1020.2
20160824025540 61 323 8.0 13.0 0.00 0.00 0.00 74 1020.1
20160824025039 61 316 6.0 12.0 0.00 0.00 0.00 72 1020.0
20160824024539 61 308 6.0 12.0 0.00 0.00 0.00 71 1019.8
20160824024039 62 320 8.0 15.0 0.00 0.00 0.00 70 1019.6
20160824023539 62 296 8.0 15.0 0.00 0.00 0.00 68 1019.3
20160824023039 63 312 9.0 15.0 0.00 0.00 0.00 66 1019.3
20160824022540 63 329 12.0 16.0 0.00 0.00 0.00 64 1019.3
20160824022039 64 319 9.0 16.0 0.00 0.00 0.00 62 1019.2
20160824021539 65 315 10.0 16.0 0.00 0.00 0.00 60 1019.5
20160824021039 66 343 10.0 16.0 0.00 0.00 0.00 59 1019.5
20160824020040 68 345 10.0 15.0 0.00 0.00 0.00 57 1019.5
20160824015540 68 319 7.0 16.0 0.00 0.00 0.00 57 1019.7
20160824015039 69 278 8.0 16.0 0.00 0.00 0.00 56 1020.2
20160824014539 69 315 10.0 16.0 0.00 0.00 0.00 57 1020.4
20160824014039 69 324 10.0 18.0 0.00 0.00 0.00 56 1020.3
20160824013539 69 329 9.0 18.0 0.00 0.00 0.00 57 1020.2
20160824013039 69 333 9.0 18.0 0.00 0.00 0.00 57 1020.2
20160824012540 69 317 9.0 17.0 0.00 0.00 0.00 57 1020.2
20160824012039 69 320 10.0 17.0 0.00 0.00 0.00 57 1020.2
20160824011539 69 338 9.0 17.0 0.00 0.00 0.00 58 1020.2
20160824011041 69 295 10.0 18.0 0.00 0.00 0.00 58 1020.3
20160824010539 69 313 8.0 18.0 0.00 0.00 0.00 58 1020.2
20160824010039 69 306 9.0 18.0 0.00 0.00 0.00 59 1020.3
20160824005540 69 324 11.0 20.0 0.00 0.00 0.00 58 1020.3
20160824005039 69 285 9.0 20.0 0.00 0.00 0.00 59 1020.3
20160824004539 69 319 12.0 20.0 0.00 0.00 0.00 59 1020.3
20160824004039 69 320 10.0 18.0 0.00 0.00 0.00 60 1020.3
20160824003539 69 323 9.0 18.0 0.00 0.00 0.00 60 1020.4
20160824003039 69 326 13.0 21.0 0.00 0.00 0.00 60 1020.4
20160824002542 69 308 11.0 21.0 0.00 0.00 0.00 60 1020.5
20160824002039 69 309 12.0 21.0 0.00 0.00 0.00 60 1020.5
20160824001539 69 312 10.0 16.0 0.00 0.00 0.00 61 1020.6
20160824001039 69 323 9.0 19.0 0.00 0.00 0.00 61 1020.7
20160824000539 69 312 8.0 19.0 0.00 0.00 0.00 61 1020.6
20160824000039 69 324 9.0 19.0 0.00 0.00 0.00 62 1020.8
20160823235540 69 326 10.0 18.0 0.00 0.00 0.00 61 1020.8
20160823235040 69 312 10.0 18.0 0.00 0.00 0.00 62 1020.8
20160823234539 69 309 11.0 18.0 0.00 0.00 0.00 62 1020.8
20160823234039 69 331 11.0 18.0 0.00 0.00 0.00 62 1020.7
20160823233539 69 312 11.0 18.0 0.00 0.00 0.00 62 1020.8
20160823233039 69 310 10.0 17.0 0.00 0.00 0.00 63 1020.8
20160823232540 69 319 11.0 19.0 0.00 0.00 0.00 64 1020.9
20160823232039 69 324 14.0 19.0 0.00 0.00 0.00 64 1020.8
20160823231539 69 312 11.0 19.0 0.00 0.00 0.00 66 1020.8
20160823231041 68 319 12.0 17.0 0.00 0.00 0.00 68 1020.8
20160823230539 67 326 10.0 17.0 0.00 0.00 0.00 70 1020.8
20160823230039 67 305 11.0 17.0 0.00 0.00 0.00 72 1020.9
20160823225539 66 331 8.0 16.0 0.00 0.00 0.00 76 1020.9
20160823225039 65 343 10.0 17.0 0.00 0.00 0.00 80 1020.9
20160823224539 64 324 10.0 17.0 0.00 0.00 0.00 83 1021.0
20160823224039 63 316 9.0 17.0 0.00 0.00 0.00 84 1021.1
20160823223539 63 306 11.0 20.0 0.00 0.00 0.00 85 1021.1
20160823223039 62 310 11.0 20.0 0.00 0.00 0.00 86 1021.1
20160823222539 62 347 11.0 20.0 0.00 0.00 0.00 87 1021.2
20160823222039 62 334 10.0 19.0 0.00 0.00 0.00 87 1021.2
20160823221540 62 309 11.0 19.0 0.00 0.00 0.00 87 1021.2
20160823221039 62 337 12.0 18.0 0.00 0.00 0.00 87 1021.2
20160823220539 62 315 13.0 16.0 0.00 0.00 0.00 87 1021.2
20160823220039 62 331 9.0 16.0 0.00 0.00 0.00 87 1021.3
20160823215539 62 303 10.0 16.0 0.00 0.00 0.00 88 1021.4
20160823215039 62 313 12.0 20.0 0.00 0.00 0.00 88 1021.4
20160823214539 62 312 12.0 20.0 0.00 0.00 0.00 87 1021.4
20160823214041 62 330 10.0 20.0 0.00 0.00 0.00 88 1021.4
20160823213539 62 320 10.0 19.0 0.00 0.00 0.00 88 1021.4
20160823213039 62 320 9.0 18.0 0.00 0.00 0.00 87 1021.4
20160823212539 62 294 10.0 16.0 0.00 0.00 0.00 88 1021.3
20160823212040 61 320 11.0 16.0 0.00 0.00 0.00 88 1021.4
20160823211539 61 331 11.0 19.0 0.00 0.00 0.00 89 1021.4
20160823211039 61 312 13.0 19.0 0.00 0.00 0.00 89 1021.5
20160823210539 61 317 13.0 19.0 0.00 0.00 0.00 89 1021.5
20160823210040 61 312 12.0 21.0 0.00 0.00 0.00 89 1021.5
20160823205539 61 336 13.0 21.0 0.00 0.00 0.00 88 1021.6
20160823204539 61 329 12.0 19.0 0.00 0.00 0.00 88 1021.6
20160823204041 61 319 12.0 19.0 0.00 0.00 0.00 88 1021.6
20160823203540 61 319 12.0 22.0 0.00 0.00 0.00 87 1021.6
20160823203039 61 320 13.0 22.0 0.00 0.00 0.00 86 1021.6
20160823202539 62 315 13.0 22.0 0.00 0.00 0.00 86 1021.7
20160823202039 62 319 15.0 19.0 0.00 0.00 0.00 86 1021.7
20160823201539 62 308 12.0 21.0 0.00 0.00 0.00 86 1021.5
20160823201039 62 329 14.0 21.0 0.00 0.00 0.00 85 1021.7
20160823200539 62 324 12.0 21.0 0.00 0.00 0.00 85 1021.6
20160823200039 62 330 10.0 20.0 0.00 0.00 0.00 85 1021.5
20160823195539 63 330 15.0 17.0 0.00 0.00 0.00 84 1021.5
20160823195039 63 324 12.0 17.0 0.00 0.00 0.00 81 1021.6
20160823194539 64 315 13.0 18.0 0.00 0.00 0.00 80 1021.6
20160823194039 64 326 10.0 18.0 0.00 0.00 0.00 81 1021.6
20160823193539 64 322 12.0 18.0 0.00 0.00 0.00 80 1021.5
20160823193039 65 320 11.0 16.0 0.00 0.00 0.00 80 1021.5
20160823192539 65 336 11.0 16.0 0.00 0.00 0.00 79 1021.5
20160823192038 65 302 10.0 17.0 0.00 0.00 0.00 79 1021.6
20160823191039 65 289 9.0 17.0 0.00 0.00 0.00 81 1021.6
20160823190538 65 294 9.0 15.0 0.00 0.00 0.00 83 1021.6
20160823190039 64 288 10.0 15.0 0.00 0.00 0.00 83 1021.7
20160823185539 64 329 10.0 15.0 0.00 0.00 0.00 84 1021.7
20160823185038 63 280 10.0 17.0 0.00 0.00 0.00 84 1021.8
20160823184539 63 336 9.0 17.0 0.00 0.00 0.00 86 1021.9
20160823184039 63 303 9.0 17.0 0.00 0.00 0.00 86 1021.8
20160823183539 62 309 8.0 16.0 0.00 0.00 0.00 86 1021.9
20160823183038 63 322 11.0 16.0 0.00 0.00 0.00 86 1021.9
20160823182539 63 310 9.0 16.0 0.00 0.00 0.00 85 1021.9
20160823182039 63 324 10.0 16.0 0.00 0.00 0.00 84 1021.9
20160823181540 63 302 9.0 16.0 0.00 0.00 0.00 85 1021.9
20160823181039 63 317 12.0 16.0 0.00 0.00 0.00 84 1021.8
20160823180538 64 315 11.0 16.0 0.00 0.00 0.00 84 1021.9
20160823175541 64 334 12.0 14.0 0.00 0.00 0.00 84 1021.9
20160823175038 65 341 9.0 13.0 0.00 0.00 0.00 83 1022.0
20160823174538 65 315 9.0 12.0 0.00 0.00 0.00 84 1021.9
20160823174039 64 326 7.0 12.0 0.00 0.00 0.00 86 1021.8
20160823173538 64 322 7.0 12.0 0.00 0.00 0.00 88 1021.8
20160823173039 64 319 8.0 11.0 0.00 0.00 0.00 88 1021.8
20160823172539 63 308 6.0 11.0 0.00 0.00 0.00 90 1021.8
20160823172038 63 329 6.0 10.0 0.00 0.00 0.00 91 1021.9
20160823171538 62 310 6.0 10.0 0.00 0.00 0.00 92 1021.8
20160823170538 61 331 8.0 10.0 0.00 0.00 0.00 93 1021.9
20160823170038 61 316 6.0 10.0 0.00 0.00 0.00 94 1021.9
20160823165539 60 326 7.0 10.0 0.00 0.00 0.00 95 1021.9
20160823165039 60 329 7.0 9.0 0.00 0.00 0.00 96 1021.8
20160823164538 59 327 4.0 9.0 0.00 0.00 0.00 96 1021.8
20160823164039 58 323 4.0 10.0 0.00 0.00 0.00 96 1021.7
20160823163538 58 323 6.0 10.0 0.00 0.00 0.00 97 1021.7
20160823163038 57 324 5.0 10.0 0.00 0.00 0.00 97 1021.6
20160823162539 57 336 7.0 10.0 0.00 0.00 0.00 97 1021.6
20160823161538 56 330 7.0 7.0 0.00 0.00 0.00 97 1021.6
20160823161039 55 0 0.0 4.0 0.00 0.00 0.00 97 1021.6
20160823160538 54 0 0.0 4.0 0.00 0.00 0.00 97 1021.6
20160823160038 54 298 0.0 4.0 0.00 0.00 0.00 97 1021.5
20160823155539 53 7 0.0 1.0 0.00 0.00 0.00 97 1021.5
20160823155038 53 0 0.0 0.0 0.00 0.00 0.00 97 1021.5
20160823154538 52 0 0.0 0.0 0.00 0.00 0.00 97 1021.4
20160823154039 52 0 0.0 0.0 0.00 0.00 0.00 97 1021.4
20160823153538 52 0 0.0 0.0 0.00 0.00 0.00 97 1021.4
20160823153038 52 0 0.0 0.0 0.00 0.00 0.00 97 1021.5
20160823152542 52 0 0.0 0.0 0.00 0.00 0.00 97 1021.4
20160823152038 52 0 0.0 0.0 0.00 0.00 0.00 97 1021.4
20160823151538 52 0 0.0 0.0 0.00 0.00 0.00 97 1021.4
20160823151039 52 0 0.0 0.0 0.00 0.00 0.00 97 1021.3
20160823150538 52 0 0.0 0.0 0.00 0.00 0.00 97 1021.2
20160823150038 52 0 0.0 0.0 0.00 0.00 0.00 97 1021.3
20160823145539 52 0 0.0 0.0 0.00 0.00 0.00 97 1021.2
20160823145038 52 0 0.0 0.0 0.00 0.00 0.00 97 1021.3
20160823144539 52 0 0.0 0.0 0.00 0.00 0.00 97 1021.2
20160823144039 52 0 0.0 0.0 0.00 0.00 0.00 97 1021.2
20160823143538 52 0 0.0 0.0 0.00 0.00 0.00 97 1021.2
20160823143038 52 0 0.0 0.0 0.00 0.00 0.00 97 1021.1
20160823142539 52 0 0.0 0.0 0.00 0.00 0.00 97 1021.1
20160823142039 52 0 0.0 0.0 0.00 0.00 0.00 97 1021.0
20160823141538 52 0 0.0 0.0 0.00 0.00 0.00 97 1020.9
20160823141039 52 0 0.0 0.0 0.00 0.00 0.00 97 1021.0
20160823140538 51 0 0.0 0.0 0.00 0.00 0.00 97 1020.9
20160823140038 51 0 0.0 0.0 0.00 0.00 0.00 97 1020.9
20160823135539 51 0 0.0 0.0 0.00 0.00 0.00 97 1020.9
20160823135039 51 0 0.0 0.0 0.00 0.00 0.00 97 1020.8
20160823134538 51 0 0.0 0.0 0.00 0.00 0.00 97 1020.7
20160823134039 52 0 0.0 0.0 0.00 0.00 0.00 97 1020.7
20160823133538 52 0 0.0 0.0 0.00 0.00 0.00 97 1020.7
20160823133038 52 0 0.0 0.0 0.00 0.00 0.00 97 1020.7
20160823132539 51 0 0.0 0.0 0.00 0.00 0.00 97 1020.7
20160823132038 51 0 0.0 0.0 0.00 0.00 0.00 97 1020.6
20160823131538 51 0 0.0 0.0 0.00 0.00 0.00 97 1020.5
20160823131039 51 0 0.0 0.0 0.00 0.00 0.00 97 1020.4
20160823130538 52 0 0.0 0.0 0.00 0.00 0.00 97 1020.3
20160823130038 52 0 0.0 0.0 0.00 0.00 0.00 97 1020.3
20160823125539 52 0 0.0 0.0 0.00 0.00 0.00 97 1020.2
20160823125038 52 0 0.0 0.0 0.00 0.00 0.00 97 1020.1
20160823124538 52 0 0.0 0.0 0.00 0.00 0.00 97 1020.2
20160823124039 52 0 0.0 0.0 0.00 0.00 0.00 97 1020.1
20160823123539 52 0 0.0 0.0 0.00 0.00 0.00 97 1020.1
20160823123038 52 0 0.0 0.0 0.00 0.00 0.00 97 1020.0
20160823122539 53 0 0.0 0.0 0.00 0.00 0.00 96 1020.0
20160823122039 53 0 0.0 0.0 0.00 0.00 0.00 96 1020.0
20160823121538 53 0 0.0 0.0 0.00 0.00 0.00 96 1020.0
20160823121038 53 0 0.0 0.0 0.00 0.00 0.00 96 1020.0
20160823120538 53 0 0.0 0.0 0.00 0.00 0.00 96 1019.9
20160823120039 53 0 0.0 0.0 0.00 0.00 0.00 96 1020.0
20160823115539 53 0 0.0 0.0 0.00 0.00 0.00 96 1020.0
20160823115038 53 0 0.0 0.0 0.00 0.00 0.00 96 1020.0
20160823114539 53 0 0.0 0.0 0.00 0.00 0.00 96 1019.9
20160823114038 52 0 0.0 0.0 0.00 0.00 0.00 96 1020.0
20160823113538 52 0 0.0 0.0 0.00 0.00 0.00 96 1019.9
20160823113038 53 0 0.0 0.0 0.00 0.00 0.00 96 1019.9
20160823112539 53 0 0.0 0.0 0.00 0.00 0.00 96 1019.9
20160823112038 53 0 0.0 0.0 0.00 0.00 0.00 96 1019.9
20160823111538 53 0 0.0 0.0 0.00 0.00 0.00 96 1019.9
20160823111038 53 0 0.0 0.0 0.00 0.00 0.00 96 1019.9
20160823110538 53 0 0.0 0.0 0.00 0.00 0.00 96 1020.0
20160823110038 53 0 0.0 0.0 0.00 0.00 0.00 96 1020.0
20160823105539 53 0 0.0 0.0 0.00 0.00 0.00 96 1020.0
20160823105038 53 0 0.0 0.0 0.00 0.00 0.00 96 1020.0
20160823104538 53 0 0.0 0.0 0.00 0.00 0.00 96 1019.9
20160823104038 53 0 0.0 0.0 0.00 0.00 0.00 96 1019.9
20160823103539 53 0 0.0 0.0 0.00 0.00 0.00 96 1019.9
20160823103038 53 0 0.0 0.0 0.00 0.00 0.00 96 1019.9
20160823102539 53 0 0.0 0.0 0.00 0.00 0.00 96 1019.9
20160823102038 53 0 0.0 0.0 0.00 0.00 0.00 96 1019.9
20160823101539 53 0 0.0 0.0 0.00 0.00 0.00 96 1019.9
20160823100538 53 0 0.0 0.0 0.00 0.00 0.00 96 1019.7
20160823100039 53 0 0.0 0.0 0.00 0.00 0.00 96 1019.7
20160823095539 53 0 0.0 0.0 0.00 0.00 0.00 96 1019.6
20160823095038 53 0 0.0 0.0 0.00 0.00 0.00 96 1019.5
20160823094539 53 0 0.0 0.0 0.00 0.00 0.00 95 1019.6
20160823094038 53 0 0.0 0.0 0.00 0.00 0.00 95 1019.6
20160823093539 53 0 0.0 0.0 0.00 0.00 0.00 95 1019.7
20160823093038 53 0 0.0 0.0 0.00 0.00 0.00 95 1019.7
20160823092539 53 0 0.0 0.0 0.00 0.00 0.00 95 1019.7
20160823092038 53 0 0.0 0.0 0.00 0.00 0.00 95 1019.7
20160823091538 53 0 0.0 0.0 0.00 0.00 0.00 95 1019.7
20160823091038 53 0 0.0 0.0 0.00 0.00 0.00 95 1019.7
20160823090539 54 0 0.0 0.0 0.00 0.00 0.00 95 1019.7
20160823090038 54 0 0.0 0.0 0.00 0.00 0.00 95 1019.7
20160823085539 54 0 0.0 0.0 0.00 0.00 0.00 95 1019.6
20160823085039 54 0 0.0 0.0 0.00 0.00 0.00 95 1019.5
20160823084539 54 0 0.0 0.0 0.00 0.00 0.00 95 1019.6
20160823084038 54 0 0.0 0.0 0.00 0.00 0.00 95 1019.6
20160823083539 54 0 0.0 0.0 0.00 0.00 0.00 95 1019.7
20160823083039 55 0 0.0 0.0 0.00 0.00 0.00 95 1019.6
20160823082539 54 0 0.0 0.0 0.00 0.00 0.00 94 1019.7
20160823082039 54 0 0.0 0.0 0.00 0.00 0.00 94 1019.7
20160823081539 54 0 0.0 0.0 0.00 0.00 0.00 94 1019.7
20160823081038 54 0 0.0 0.0 0.00 0.00 0.00 94 1019.6
20160823080538 55 0 0.0 0.0 0.00 0.00 0.00 94 1019.6
20160823080039 55 0 0.0 0.0 0.00 0.00 0.00 93 1019.5
20160823075539 55 0 0.0 0.0 0.00 0.00 0.00 93 1019.5
20160823075038 55 0 0.0 0.0 0.00 0.00 0.00 93 1019.5
20160823074539 55 0 0.0 0.0 0.00 0.00 0.00 93 1019.5
20160823074038 55 0 0.0 0.0 0.00 0.00 0.00 93 1019.5
20160823073539 55 0 0.0 0.0 0.00 0.00 0.00 93 1019.5
20160823073038 55 0 0.0 0.0 0.00 0.00 0.00 93 1019.5
20160823072539 55 0 0.0 0.0 0.00 0.00 0.00 93 1019.5
20160823072039 55 0 0.0 0.0 0.00 0.00 0.00 93 1019.5
20160823071539 55 0 0.0 0.0 0.00 0.00 0.00 92 1019.5
20160823071038 56 0 0.0 0.0 0.00 0.00 0.00 92 1019.4
20160823070539 56 0 0.0 0.0 0.00 0.00 0.00 92 1019.5
20160823070039 56 0 0.0 0.0 0.00 0.00 0.00 91 1019.5
20160823065539 56 0 0.0 0.0 0.00 0.00 0.00 91 1019.4
20160823065039 56 0 0.0 0.0 0.00 0.00 0.00 91 1019.4
20160823063539 56 0 0.0 0.0 0.00 0.00 0.00 91 1019.5
20160823063038 56 0 0.0 11.0 0.00 0.00 0.00 91 1019.6
20160823062038 56 317 0.0 11.0 0.00 0.00 0.00 90 1019.5
20160823061538 56 0 0.0 5.0 0.00 0.00 0.00 89 1019.6
20160823061038 57 0 0.0 5.0 0.00 0.00 0.00 89 1019.6
20160823060539 57 343 0.0 5.0 0.00 0.00 0.00 89 1019.5
20160823060039 57 334 0.0 8.0 0.00 0.00 0.00 89 1019.4
20160823055539 57 329 4.0 8.0 0.00 0.00 0.00 88 1019.4
20160823054538 57 0 3.0 5.0 0.00 0.00 0.00 88 1019.3
20160823054038 57 60 0.0 5.0 0.00 0.00 0.00 88 1019.4
20160823053538 57 284 0.0 8.0 0.00 0.00 0.00 87 1019.3
20160823053038 58 354 0.0 8.0 0.00 0.00 0.00 87 1019.3
20160823052539 58 312 4.0 8.0 0.00 0.00 0.00 87 1019.3
20160823052038 58 21 0.0 5.0 0.00 0.00 0.00 86 1019.3
20160823051538 58 16 0.0 3.0 0.00 0.00 0.00 86 1019.2
20160823051038 58 0 0.0 0.0 0.00 0.00 0.00 85 1019.2
20160823050539 58 0 0.0 0.0 0.00 0.00 0.00 85 1019.2
20160823050039 58 0 0.0 0.0 0.00 0.00 0.00 85 1019.2
20160823045539 58 0 0.0 0.0 0.00 0.00 0.00 84 1019.1
20160823045039 59 0 0.0 0.0 0.00 0.00 0.00 84 1019.1
20160823044539 59 0 0.0 0.0 0.00 0.00 0.00 83 1019.1